FLOCK 3P-65 (42028 NORAD) Tracking and Keplerian Element Data

This shows tracking and keplerian element data for the satellite.

Feedback or suggestion? Click here.




ElementValue
Catalog42028
NameFLOCK 3P-65
Epoch Orbit18314
Epoch Day154.41011913
Epoch Year2020
RAAN222.3782
Inclination97.3663
Eccentricity0.0008064
Argument of Perigee18.482
Mean Anonmoly341.671
Mean Motion15.26310561
Decay Rate1.191E-05
L11 42028U 17008CJ 20154.41011913 .00001191 00000-0 48655-4 0 9998
L22 42028 97.3663 222.3782 0008064 18.4820 341.6710 15.26310561183148

Live tracking and technical data element details for FLOCK 3P-65 (NORAD 42028). FLOCK 3P-65 can be tracked NOW for your location showing map with azimuth and elevation plus other details from your city location.

Track the satellite on the map from your city or location and see movement details for azimuth, elevation, latitude, longitude, range, height, and movement on the map or in text.







IsCatalogInMostPopularTable: catalog: 42028, numindb: 337
Update: records affected: 1



GetName: 42028 FLOCK 3P-65

Hit Count: updated at: Thu, 04 Jun 2020 08:35:27 GMT